VK2RZ Weather Reports


Display with metric or nautical units.
time (UTC)temp
F
wind
direction
speed
MPH
gust
MPH
rain 1hr
in
rain 24hr
in
rain mn
in
humidity
%
barometer
mb
20260831193414 55 0 0.0 0.0 0.00 0.00 0.00 7 1026.6
20260831192414 54 0 0.0 0.0 0.00 0.00 0.00 7 1026.6
20260831191414 54 0 0.0 0.0 0.00 0.00 0.00 7 1026.5
20260831190414 55 0 0.0 0.0 0.00 0.00 0.00 7 1026.5
20260831185414 55 0 0.0 0.0 0.00 0.00 0.00 7 1026.6
20260831184412 55 0 0.0 0.0 0.00 0.00 0.00 7 1026.5
20260831183412 55 0 0.0 0.0 0.00 0.00 0.00 7 1026.6
20260831182412 54 0 0.0 0.0 0.00 0.00 0.00 7 1026.5
20260831181412 54 0 0.0 0.0 0.00 0.00 0.00 7 1026.4
20260831180412 55 0 0.0 0.0 0.00 0.00 0.00 7 1026.4
20260831175412 56 0 0.0 0.0 0.00 0.00 0.00 7 1026.4
20260831174412 56 0 0.0 0.0 0.00 0.00 0.00 7 1026.5
20260831173412 55 0 0.0 0.0 0.00 0.00 0.00 7 1026.5
20260831172412 56 0 0.0 0.0 0.00 0.00 0.00 7 1026.5
20260831171412 57 0 0.0 0.0 0.00 0.00 0.00 7 1026.5
20260831170412 56 0 0.0 0.0 0.00 0.00 0.00 7 1026.6
20260831165412 55 0 0.0 0.0 0.00 0.00 0.00 7 1026.7
20260831164412 55 0 0.0 0.0 0.00 0.00 0.00 7 1026.7
20260831163412 55 0 0.0 0.0 0.00 0.00 0.00 7 1026.9
20260831162412 56 0 0.0 0.0 0.00 0.00 0.00 7 1027.0
20260831161412 57 0 0.0 0.0 0.00 0.00 0.00 7 1027.2
20260831160412 57 0 0.0 0.0 0.00 0.00 0.00 7 1027.3
20260831155412 57 0 0.0 0.0 0.00 0.00 0.00 7 1027.5
20260831154412 56 0 0.0 0.0 0.00 0.00 0.00 7 1027.6
20260831153412 57 0 0.0 0.0 0.00 0.00 0.00 7 1027.7
20260831152412 57 0 0.0 0.0 0.00 0.00 0.00 7 1028.0
20260831151412 57 0 0.0 0.0 0.00 0.00 0.00 7 1028.2
20260831150412 56 0 0.0 0.0 0.00 0.00 0.00 7 1028.3
20260831145412 56 0 0.0 0.0 0.00 0.00 0.00 7 1028.4
20260831144412 56 0 0.0 0.0 0.00 0.00 0.00 7 1028.4
20260831143412 56 0 0.0 0.0 0.00 0.00 0.00 7 1028.5
20260831142412 56 0 0.0 0.0 0.00 0.00 0.00 7 1028.5
20260831141412 56 0 0.0 0.0 0.00 0.00 0.00 7 1028.6
20260831140412 56 0 0.0 0.0 0.00 0.00 0.00 7 1028.7
20260831135412 56 0 0.0 0.0 0.00 0.00 0.00 7 1028.8
20260831134412 56 0 0.0 0.0 0.00 0.00 0.00 7 1028.7
20260831133412 56 0 0.0 2.0 0.00 0.00 0.00 7 1028.9
20260831132412 56 0 0.0 2.0 0.00 0.00 0.00 7 1028.9
20260831131412 56 0 0.0 0.0 0.00 0.00 0.00 7 1029.0
20260831130412 56 339 1.0 2.0 0.00 0.00 0.00 8 1029.2
20260831125412 55 339 1.0 2.0 0.00 0.00 0.00 8 1029.1
20260831124412 55 339 1.0 2.0 0.00 0.00 0.00 8 1029.2
20260831123412 55 0 0.0 4.0 0.00 0.00 0.00 8 1029.1
20260831122412 56 0 0.0 0.0 0.00 0.00 0.00 7 1029.2
20260831121412 57 0 0.0 2.0 0.00 0.00 0.00 7 1029.3
20260831120412 58 340 2.0 2.0 0.00 0.00 0.00 7 1029.3
20260831115411 58 340 2.0 4.0 0.00 0.00 0.00 7 1029.3
20260831114411 59 0 0.0 4.0 0.00 0.00 0.00 7 1029.4
20260831113411 59 341 2.0 5.0 0.00 0.00 0.00 7 1029.4
20260831112411 59 342 1.0 4.0 0.00 0.00 0.00 7 1029.6
20260831111411 59 0 0.0 4.0 0.00 0.00 0.00 7 1029.6
20260831110411 59 342 1.0 4.0 0.00 0.00 0.00 7 1029.6
20260831105411 59 343 4.0 4.0 0.00 0.00 0.00 7 1029.6
20260831104410 59 0 0.0 4.0 0.00 0.00 0.00 7 1029.7
20260831103410 59 344 2.0 6.0 0.00 0.00 0.00 7 1029.6
20260831102410 59 0 0.0 4.0 0.00 0.00 0.00 7 1029.7
20260831101410 59 343 2.0 5.0 0.00 0.00 0.00 7 1029.5
20260831100410 59 0 0.0 5.0 0.00 0.00 0.00 7 1029.6
20260831095409 59 345 1.0 4.0 0.00 0.00 0.00 7 1029.5
20260831094409 59 0 0.0 4.0 0.00 0.00 0.00 8 1029.6
20260831093409 59 345 2.0 5.0 0.00 0.00 0.00 8 1029.5
20260831092409 59 14 2.0 3.0 0.00 0.00 0.00 8 1029.6
20260831091408 59 13 2.0 3.0 0.00 0.00 0.00 8 1029.7
20260831090408 59 14 2.0 5.0 0.00 0.00 0.00 8 1029.7
20260831085408 59 0 0.0 6.0 0.00 0.00 0.00 8 1029.6
20260831084408 59 349 1.0 5.0 0.00 0.00 0.00 8 1029.5
20260831083408 60 359 2.0 3.0 0.00 0.00 0.00 8 1029.4
20260831082408 60 0 0.0 5.0 0.00 0.00 0.00 8 1029.4
20260831081408 60 0 0.0 0.0 0.00 0.00 0.00 8 1029.4
20260831080407 60 0 0.0 1.0 0.00 0.00 0.00 8 1029.3
20260831075407 60 35 2.0 4.0 0.00 0.00 0.00 8 1029.4
20260831074407 61 29 3.0 6.0 0.00 0.00 0.00 8 1029.2
20260831073407 61 22 2.0 5.0 0.00 0.00 0.00 8 1029.2
20260831072407 61 0 0.0 3.0 0.00 0.00 0.00 8 1029.1
20260831071407 62 54 3.0 7.0 0.00 0.00 0.00 7 1029.0
20260831070407 62 49 2.0 10.0 0.00 0.00 0.00 7 1028.9
20260831065407 62 54 1.0 8.0 0.00 0.00 0.00 7 1029.0
20260831064407 62 43 1.0 4.0 0.00 0.00 0.00 7 1028.9
20260831063407 63 43 3.0 5.0 0.00 0.00 0.00 7 1028.9
20260831062407 63 0 0.0 9.0 0.00 0.00 0.00 7 1028.8
20260831061407 64 52 2.0 5.0 0.00 0.00 0.00 7 1028.8
20260831060407 64 59 4.0 10.0 0.00 0.00 0.00 6 1028.8
20260831055407 64 79 3.0 9.0 0.00 0.00 0.00 6 1028.7
20260831054407 65 71 3.0 7.0 0.00 0.00 0.00 6 1028.8
20260831053407 65 29 7.0 7.0 0.00 0.00 0.00 6 1028.8
20260831052407 65 44 2.0 10.0 0.00 0.00 0.00 6 1028.9
20260831051407 65 38 1.0 10.0 0.00 0.00 0.00 6 1029.0
20260831050407 65 81 4.0 8.0 0.00 0.00 0.00 7 1029.1
20260831045407 65 83 6.0 8.0 0.00 0.00 0.00 7 1029.0
20260831044407 65 57 2.0 6.0 0.00 0.00 0.00 7 1029.0
20260831043407 65 81 3.0 14.0 0.00 0.00 0.00 7 1029.1
20260831042407 65 53 2.0 7.0 0.00 0.00 0.00 7 1029.0
20260831041407 65 82 3.0 10.0 0.00 0.00 0.00 7 1029.2
20260831040406 65 82 8.0 9.0 0.00 0.00 0.00 7 1029.2
20260831035406 65 71 5.0 8.0 0.00 0.00 0.00 7 1029.1
20260831034406 65 57 5.0 8.0 0.00 0.00 0.00 7 1029.2
20260831033406 65 80 4.0 9.0 0.00 0.00 0.00 7 1029.4
20260831032406 65 82 6.0 11.0 0.00 0.00 0.00 7 1029.5
20260831031406 65 62 6.0 9.0 0.00 0.00 0.00 7 1029.5
20260831030405 65 99 3.0 8.0 0.00 0.00 0.00 7 1029.6
20260831025405 65 87 3.0 11.0 0.00 0.00 0.00 7 1029.7
20260831024405 65 12 7.0 9.0 0.00 0.00 0.00 7 1029.9
20260831023405 65 72 2.0 8.0 0.00 0.00 0.00 7 1029.9
20260831022405 65 65 7.0 10.0 0.00 0.00 0.00 7 1030.0
20260831021405 65 9 3.0 9.0 0.00 0.00 0.00 7 1030.1
20260831020405 65 47 2.0 11.0 0.00 0.00 0.00 7 1030.4
20260831015404 65 46 7.0 12.0 0.00 0.00 0.00 7 1030.5
20260831014404 65 33 8.0 11.0 0.00 0.00 0.00 6 1030.8
20260831013404 66 82 4.0 9.0 0.00 0.00 0.00 6 1030.9
20260831012404 65 94 6.0 8.0 0.00 0.00 0.00 6 1031.1
20260831011404 66 97 3.0 8.0 0.00 0.00 0.00 6 1031.1
20260831010404 65 60 4.0 7.0 0.00 0.00 0.00 7 1031.2
20260831005404 65 47 5.0 8.0 0.00 0.00 0.00 6 1031.2
20260831004404 66 43 7.0 8.0 0.00 0.00 0.00 6 1031.3
20260831003404 66 83 4.0 6.0 0.00 0.00 0.00 6 1031.3
20260831002404 66 29 4.0 8.0 0.00 0.00 0.00 6 1031.2
20260831001404 65 89 3.0 7.0 0.00 0.00 0.00 6 1031.1
20260831000404 65 37 2.0 5.0 0.00 0.00 0.00 6 1031.1
20260830235404 64 62 2.0 5.0 0.00 0.00 0.00 6 1031.2
20260830234404 64 39 2.0 4.0 0.00 0.00 0.00 6 1031.2
20260830233404 64 22 1.0 3.0 0.00 0.00 0.00 6 1031.3
20260830232404 62 354 1.0 7.0 0.00 0.00 0.00 7 1031.3
20260830231404 62 358 2.0 5.0 0.00 0.00 0.00 7 1031.3
20260830230404 62 0 0.0 5.0 0.00 0.00 0.00 7 1031.4
20260830225404 61 273 2.0 3.0 0.00 0.00 0.00 7 1031.4
20260830224404 60 274 2.0 4.0 0.00 0.00 0.00 7 1031.4
20260830223404 59 277 4.0 6.0 0.00 0.00 0.00 8 1031.3
20260830222404 59 282 2.0 6.0 0.00 0.00 0.00 8 1031.3
20260830221404 59 291 1.0 3.0 0.00 0.00 0.00 8 1031.3
20260830220404 58 291 1.0 4.0 0.00 0.00 0.00 8 1031.2
20260830215404 57 0 0.0 2.0 0.00 0.00 0.00 8 1031.1
20260830214404 56 290 2.0 6.0 0.00 0.00 0.00 8 1031.1
20260830213404 56 287 3.0 6.0 0.00 0.00 0.00 8 1030.9
20260830212404 55 293 4.0 4.0 0.00 0.00 0.00 8 1031.0
20260830211404 54 297 2.0 4.0 0.00 0.00 0.00 8 1031.0
20260830210403 54 0 0.0 4.0 0.00 0.00 0.00 9 1030.9
20260830205403 53 301 2.0 3.0 0.00 0.00 0.00 9 1030.8
20260830204403 53 300 1.0 5.0 0.00 0.00 0.00 9 1030.7
20260830203403 52 301 3.0 7.0 0.00 0.00 0.00 9 1030.4
20260830202403 53 303 3.0 7.0 0.00 0.00 0.00 9 1030.3
20260830201403 54 297 4.0 7.0 0.00 0.00 0.00 9 1030.2
20260830200403 55 278 2.0 6.0 0.00 0.00 0.00 8 1030.2
20260830195403 56 322 2.0 4.0 0.00 0.00 0.00 9 1029.9
20260830194403 56 0 0.0 3.0 0.00 0.00 0.00 9 1030.0